User: anonymous   Login
Location: Lawrence Hall of Science
(37.8785°N, 122.2415°W)
Time: 11:30:04
(UTC-07:00)
Language:

Cosmos 1461 - Orbit

View from above orbital plane
View from above orbital plane
View from above satellite
View from above satellite

Ground track
Ground track

The orbit data is extracted from the following two-line orbital elements,

1 14064U 83044A   15149.40326120  .00002223  00000-0  21059-3 0  9991
2 14064 065.0032 081.7410 0114781 333.2462 026.2758 14.91456183611436
Epoch (UTC): 29 May 2015 09:40:41
Eccentricity: 0.0114781
inclination: 65.0032°
perigee height: 513 km
apogee height: 673 km
right ascension of ascending node: 81.7410°
argument of perigee: 333.2462°
revolutions per day: 14.91456183
mean anomaly at epoch: 26.2758°
orbit number at epoch: 61143

The dashed part of the orbit path shows where the satellite is in the earth's shadow,  

DLR